Weather History for Mojave, CA

Change the Weather History Date:

Monday, October 1, 2012

  Actual Average Record
Temperature  
Mean Temperature 80 °F -  
Max Temperature 95 °F 85 °F 97 °F (1980)
Min Temperature 64 °F 55 °F 34 °F (1971)
Cooling Degree Days 14    
Growing Degree Days 30 (Base 50)    
Moisture  
Dew Point 33 °F    
Average Humidity 19    
Maximum Humidity 34    
Minimum Humidity 9    
Precipitation  
Precipitation 0.00 in - - ()
Sea Level Pressure  
Sea Level Pressure 30.07 in    
Wind  
Wind Speed 4 mph (NNW)    
Max Wind Speed 14 mph    
Max Gust Speed -    
Visibility 10 miles    
Events      
Averages and records for this station are not official NWS values.
T = Trace of Precipitation, MM = Missing Value Source: NWS Daily Summary

Daily Weather History Graph

Daily Weather History Graph

Search for Another Location

Airport:

Trip Planner

Search our weather history database for the weather conditions in past years. The results will help you decide how hot, cold, wet, or windy it might be!

Date:

Astronomy

Oct. 01, 2012 Rise Set
Actual Time 6:47 AM PDT 6:35 PM PDT
Civil Twilight 6:22 AM PDT 7:00 PM PDT
Nautical Twilight 5:53 AM PDT 7:30 PM PDT
Astronomical Twilight 5:23 AM PDT 7:59 PM PDT
Moon 7:21 PM PDT (10/1) 8:16 AM PDT (10/1)
Length of Visible Light 12h 38m
Length of Day
11h 47m
Full, 97% of the Moon is Illuminated
Oct 1
Full
Oct 8
Last Quarter
Oct 15
New
Oct 21
First Quarter
Oct 29
Full

Hourly Weather History & Observations

Time (PDT) Temp. Dew Point Humidity Pressure Visibility Wind Dir Wind Speed Gust Speed Precip Events Conditions
12:15 AM 77.0 °F 39.2 °F 26% 30.08 in 10.0 mi NW 8.1 mph - N/A   Clear
12:35 AM 75.2 °F 39.2 °F 27% 30.07 in 10.0 mi NW 8.1 mph - N/A   Clear
1:15 AM 75.2 °F 37.4 °F 25% 30.08 in 10.0 mi NW 8.1 mph - N/A   Clear
2:15 AM 75.2 °F 37.4 °F 25% 30.08 in 10.0 mi WNW 10.4 mph - N/A   Clear
2:35 AM 75.2 °F 37.4 °F 25% 30.08 in 10.0 mi Calm Calm - N/A   Clear
2:55 AM 73.4 °F 37.4 °F 27% 30.08 in 10.0 mi Calm Calm - N/A   Clear
3:15 AM 75.2 °F 37.4 °F 25% 30.07 in 10.0 mi Calm Calm - N/A   Clear
3:35 AM 71.6 °F 37.4 °F 29% 30.08 in 10.0 mi Calm Calm - N/A   Clear
3:55 AM 71.6 °F 39.2 °F 31% 30.08 in 10.0 mi Calm Calm - N/A   Clear
4:15 AM 71.6 °F 37.4 °F 29% 30.08 in 10.0 mi Calm Calm - N/A   Clear
4:35 AM 69.8 °F 37.4 °F 31% 30.09 in 10.0 mi Calm Calm - N/A   Clear
5:15 AM 66.2 °F 35.6 °F 32% 30.09 in 10.0 mi Calm Calm - N/A   Clear
5:35 AM 66.2 °F 35.6 °F 32% 30.09 in 10.0 mi Calm Calm - N/A   Clear
5:55 AM 64.4 °F 35.6 °F 34% 30.10 in 10.0 mi Calm Calm - N/A   Clear
6:15 AM 64.4 °F 35.6 °F 34% 30.10 in 10.0 mi Calm Calm - N/A   Clear
6:35 AM 66.2 °F 35.6 °F 32% 30.10 in 8.0 mi Calm Calm - N/A   Clear
7:15 AM 66.2 °F 35.6 °F 32% 30.11 in 7.0 mi Calm Calm - N/A   Clear
7:35 AM 69.8 °F 35.6 °F 28% 30.12 in 9.0 mi Calm Calm - N/A   Clear
7:55 AM 71.6 °F 35.6 °F 27% 30.13 in 8.0 mi Calm Calm - N/A   Clear
8:15 AM 69.8 °F 35.6 °F 28% 30.14 in 10.0 mi Calm Calm - N/A   Clear
8:35 AM 73.4 °F 37.4 °F 27% 30.14 in 10.0 mi Calm Calm - N/A   Clear
8:55 AM 77.0 °F 37.4 °F 24% 30.14 in 10.0 mi Calm Calm - N/A   Clear
9:15 AM 78.8 °F 39.2 °F 24% 30.14 in 10.0 mi Calm Calm - N/A   Clear
9:35 AM 80.6 °F 37.4 °F 21% 30.15 in 10.0 mi Calm Calm - N/A   Clear
9:55 AM 82.4 °F 37.4 °F 20% 30.15 in 10.0 mi Calm Calm - N/A   Clear
10:15 AM 84.2 °F 37.4 °F 19% 30.15 in 10.0 mi Calm Calm - N/A   Clear
10:35 AM 86.0 °F 32.0 °F 14% 30.14 in 10.0 mi Calm Calm - N/A   Clear
11:15 AM 89.6 °F 28.4 °F 11% 30.13 in 10.0 mi ENE 3.5 mph - N/A   Clear
11:35 AM 89.6 °F 26.6 °F 10% 30.13 in 10.0 mi North 5.8 mph - N/A   Clear
12:15 PM 91.4 °F 26.6 °F 10% 30.12 in 10.0 mi NE 9.2 mph - N/A   Clear
12:35 PM 91.4 °F 26.6 °F 10% 30.12 in 10.0 mi ESE 8.1 mph - N/A   Clear
12:55 PM 91.4 °F 26.6 °F 10% 30.11 in 10.0 mi NE 8.1 mph - N/A   Clear
1:15 PM 91.4 °F 26.6 °F 10% 30.10 in 10.0 mi Calm Calm - N/A   Clear
1:35 PM 93.2 °F 26.6 °F 9% 30.09 in 10.0 mi East 4.6 mph - N/A   Clear
2:15 PM 93.2 °F 26.6 °F 9% 30.06 in 10.0 mi NE 8.1 mph - N/A   Clear
2:35 PM 93.2 °F 26.6 °F 9% 30.06 in 10.0 mi SE 6.9 mph - N/A   Clear
2:55 PM 93.2 °F 26.6 °F 9% 30.05 in 10.0 mi Calm Calm - N/A   Clear
3:15 PM 93.2 °F 26.6 °F 9% 30.05 in 10.0 mi SSE 3.5 mph - N/A   Clear
3:35 PM 93.2 °F 26.6 °F 9% 30.04 in 10.0 mi Calm Calm - N/A   Clear
3:55 PM 95.0 °F 26.6 °F 9% 30.03 in 10.0 mi East 4.6 mph - N/A   Clear
4:15 PM 95.0 °F 26.6 °F 9% 30.03 in 10.0 mi Calm Calm - N/A   Clear
4:35 PM 93.2 °F 26.6 °F 9% 30.02 in 10.0 mi Calm Calm - N/A   Clear
4:55 PM 93.2 °F 26.6 °F 9% 30.02 in 10.0 mi Calm Calm - N/A   Clear
5:15 PM 93.2 °F 26.6 °F 9% 30.01 in 10.0 mi Calm Calm - N/A   Clear
5:35 PM 93.2 °F 24.8 °F 9% 30.01 in 10.0 mi East 6.9 mph - N/A   Clear
5:55 PM 93.2 °F 24.8 °F 9% 30.01 in 10.0 mi Calm Calm - N/A   Clear
6:15 PM 91.4 °F 26.6 °F 10% 30.01 in 10.0 mi Calm Calm - N/A   Clear
6:35 PM 91.4 °F 26.6 °F 10% 30.01 in 10.0 mi Calm Calm - N/A   Clear
6:55 PM 89.6 °F 26.6 °F 10% 30.01 in 10.0 mi Calm Calm - N/A   Clear
7:15 PM 86.0 °F 37.4 °F 18% 30.01 in 10.0 mi WNW 9.2 mph - N/A   Clear
7:35 PM 84.2 °F 37.4 °F 19% 30.01 in 10.0 mi WNW 10.4 mph - N/A   Clear
7:55 PM 84.2 °F 37.4 °F 19% 30.01 in 10.0 mi NW 9.2 mph - N/A   Clear
8:15 PM 82.4 °F 35.6 °F 19% 30.02 in 10.0 mi NW 11.5 mph - N/A   Clear
8:35 PM 82.4 °F 35.6 °F 19% 30.02 in 10.0 mi WNW 12.7 mph - N/A   Clear
9:15 PM 82.4 °F 37.4 °F 20% 30.02 in 10.0 mi WNW 11.5 mph - N/A   Clear
9:35 PM 80.6 °F 37.4 °F 21% 30.03 in 10.0 mi WNW 10.4 mph - N/A   Clear
9:55 PM 80.6 °F 39.2 °F 23% 30.02 in 10.0 mi NW 10.4 mph - N/A   Clear
10:15 PM 80.6 °F 39.2 °F 23% 30.03 in 10.0 mi NW 12.7 mph - N/A   Clear
10:35 PM 80.6 °F 39.2 °F 23% 30.02 in 10.0 mi NW 13.8 mph - N/A   Clear
11:15 PM 80.6 °F 37.4 °F 21% 30.02 in 10.0 mi NW 12.7 mph - N/A   Clear
11:35 PM 78.8 °F 37.4 °F 23% 30.02 in 10.0 mi NW 11.5 mph - N/A   Clear
11:55 PM 78.8 °F 37.4 °F 23% 30.02 in 10.0 mi NW 11.5 mph - N/A   Clear